Weather observations for the past three days for
Kissimmee Gateway Airport
Imperial (Metric)
Date Time (edt) Wind (mph) Vis. (mi.) Weather Sky Cond. Temperature (ºF) Relative Humidity Wind Chill (°F) Heat Index (°F) Pressure Precipitation (in)
Air Dwpt 6 hour altimeter (in) sea level (mb) 1 hr 3 hr 6 hr
Max. Min.
20 20:56 W 5 10.00 Fair CLR 82.9 75 77% 90 30.13 1020.3
20 19:56 SW 7 10.00 Fair CLR 84.9 77 96.1 84.9 77% 95 30.11 1019.4
20 18:56 S 12 10.00 Fair CLR 86 77 75% 97 30.08 1018.6
20 17:56 S 15 G 22 10.00 Thunderstorm in Vicinity CLR 88 75 66% 98 30.08 1018.5
20 16:56 SE 8 10.00 Fair CLR 95 73 49% 105 30.08 1018.6
20 15:56 SE 8 10.00 Fair CLR 93.9 73.9 52% 104 30.09 1018.7
20 14:56 S 9 10.00 Fair CLR 93 75 56% 104 30.11 1019.5
20 13:56 SE 5 10.00 Partly Cloudy SCT060 91.9 75 91.9 80.1 58% 103 30.12 1020.0
20 12:56 SW 7 10.00 Mostly Cloudy SCT035 SCT042 BKN070 91 75.9 61% 103 30.14 1020.6
20 11:56 S 8 10.00 A Few Clouds FEW026 90 77 66% 103 30.15 1020.9
20 10:56 S 5 10.00 Partly Cloudy SCT023 88 78.1 73% 102 30.14 1020.7
20 09:56 S 7 10.00 Fair CLR 86 75.9 72% 96 30.14 1020.6
20 08:56 S 7 10.00 Fair CLR 82.9 77 82% 92 30.13 1020.4
20 07:56 SE 5 10.00 Fair CLR 80.1 75.9 81 78.1 87% 85 30.12 1019.8
20 06:56 Calm 10.00 Fair CLR 78.1 75 90% 81 30.11 1019.4
20 05:56 S 3 10.00 Fair CLR 78.1 75 90% 81 30.11 1019.4
20 04:56 E 3 10.00 Fair CLR 79 73.9 85% 83 30.1 1019.2
20 03:56 SE 6 10.00 Partly Cloudy SCT036 SCT055 80.1 73.9 82% 85 30.1 1019.2
20 02:56 SE 5 10.00 Fair CLR 80.1 75 85% 85 30.1 1019.3
20 01:56 SE 5 10.00 Mostly Cloudy BKN046 81 75 86 81 82% 87 30.13 1020.1
20 00:56 SE 6 10.00 Fair CLR 82 73.9 77% 88 30.14 1020.5
19 23:56 E 5 10.00 Fair CLR 82 73.9 77% 88 30.13 1020.4
19 22:56 E 5 10.00 Fair CLR 82.9 73 72% 89 30.14 1020.5
19 20:56 S 6 10.00 Fair CLR 84 73 70% 90 30.11 1019.4
19 19:56 S 8 10.00 Fair CLR 86 73.9 95 86 67% 94 30.09 1018.7
19 18:56 S 14 10.00 Fair CLR 87.1 75.9 70% 98 30.05 1017.4
19 17:56 S 16 10.00 Fair CLR 89.1 78.1 70% 103 30.04 1017.3
19 16:56 SE 10 10.00 Fair CLR 95 73 49% 105 30.03 1016.8
19 15:56 SE 6 10.00 Fair CLR 95 72 47% 103 30.06 1017.8
19 14:56 SE 8 10.00 Fair CLR 93 73.9 54% 103 30.08 1018.5
19 13:56 S 7 10.00 Partly Cloudy SCT048 91.9 73.9 91.9 80.1 56% 102 30.1 1019.3
19 12:56 S 3 10.00 A Few Clouds FEW048 90 75 62% 100 30.11 1019.7
19 11:56 S 5 10.00 Mostly Cloudy BKN029 88 75 66% 98 30.12 1020.0
19 10:56 SW 5 10.00 A Few Clouds FEW015 87.1 75.9 70% 98 30.12 1019.7
19 09:56 SW 7 10.00 A Few Clouds FEW015 84.9 75.9 75% 94 30.11 1019.5
19 08:56 SE 7 10.00 Fair CLR 82 77 85% 90 30.11 1019.5
19 07:56 SE 3 10.00 Fair CLR 80.1 75.9 80.1 77 87% 85 30.1 1019.3
19 06:56 Calm 10.00 Fair CLR 78.1 75.9 93% 81 30.09 1018.7
19 05:56 Calm 10.00 Fair CLR 78.1 75 90% 81 30.06 1017.9
19 04:56 S 3 10.00 Fair CLR 78.1 75 90% 81 30.05 1017.7
19 03:56 SE 3 10.00 Fair CLR 79 75 88% 83 30.07 1018.1
19 02:56 Calm 10.00 Fair CLR 78.1 75 90% 81 30.08 1018.4
19 01:56 NW 3 10.00 Fair CLR 79 75 84 79 88% 83 30.09 1018.8
19 00:56 S 3 10.00 Partly Cloudy SCT090 80.1 75 85% 85 30.09 1018.9
18 23:56 NW 3 10.00 Mostly Cloudy BKN029 79 73.9 85% 83 30.12 1019.8
18 22:56 SW 5 10.00 Fair CLR 80.1 73.9 82% 85 30.08 1018.6
18 21:56 SW 3 10.00 Fair CLR 81 73.9 79% 86 30.09 1018.9
18 20:56 NW 3 10.00 Fair CLR 82.9 71.1 67% 88 30.08 1018.5
18 19:56 S 6 10.00 Fair CLR 84 70 96.1 84 63% 88 30.07 1018.1
18 18:56 SE 10 10.00 Fair CLR 84.9 75 72% 93 30.04 1017.1
18 17:56 S 14 10.00 Fair CLR 87.1 73.9 65% 95 30.03 1016.9
18 16:56 SE 14 10.00 Partly Cloudy SCT055 89.1 73.9 61% 98 30.03 1016.9
18 15:56 SE 8 10.00 Partly Cloudy SCT055 93.9 71.1 48% 101 30.04 1017.2
18 14:56 S 7 10.00 Fair CLR 93.9 73 51% 103 30.05 1017.4
18 13:56 W 6 10.00 Mostly Cloudy BKN046 93 73.9 93 79 54% 103 30.06 1018.0
18 12:56 Calm 10.00 Partly Cloudy SCT045 90 73.9 59% 99 30.1 1019.1
18 10:56 W 6 10.00 Fair CLR 87.1 75.9 70% 98 30.13 1020.1
18 09:56 SW 5 10.00 Fair CLR 84.9 77 77% 95 30.12 1019.9
18 08:56 Calm 10.00 Fair CLR 82 75.9 82% 89 30.12 1019.7
18 07:56 Calm 10.00 Fair CLR 79 77 80.1 77 94% 83 30.09 1018.9
18 06:56 SE 3 10.00 Fair CLR 77 75.9 96% 78 30.07 1018.1
18 05:56 Calm 10.00 Fair CLR 78.1 77 97% 81 30.05 1017.5
18 04:56 Calm 10.00 Fair CLR 78.1 77 97% 81 30.04 1017.3
18 03:56 SE 3 10.00 Fair CLR 78.1 75.9 93% 81 30.04 1017.2
18 02:56 SE 3 10.00 Fair CLR 79 75.9 90% 83 30.06 1017.7
18 01:56 SE 3 10.00 Fair CLR 80.1 75.9 82 80.1 87% 85 30.08 1018.5
18 00:56 SE 6 10.00 Fair CLR 80.1 75 85% 85 30.09 1018.8
17 23:56 Calm 10.00 Fair CLR 81 73.9 79% 86 30.1 1019.2
17 22:56 SE 3 10.00 Fair CLR 81 73.9 79% 86 30.1 1019.2
17 21:56 Calm 10.00 A Few Clouds FEW042 81 75.9 85% 87 30.1 1019.2
Date Time (edt) Wind (mph) Vis. (mi.) Weather Sky Cond. Air Dwpt Max. Min. Relative Humidity Wind Chill (°F) Heat Index (°F) altimeter (in) sea level (mb) 1 hr 3 hr 6 hr
6 hour
Temperature (ºF) Pressure Precipitation (in)